Showing default

TABLETSAT AURORA, 40017

Orbit data source: Space-Track

TABLETSAT AURORA, 40017 is a payload satellite owned by Sputniks (CIS) in SSO that was launched on Thu, 19 Jun 2014 UTC via a DNEPR launch vehicle from the Orenburg, Russia (OREN). Payload-class satellites include a variety of spacecraft equipped with specific instruments for various scientific and technological missions. These include communications satellites like Starlink; space stations such as the ISS; scientific satellites like the Hubble; Earth observation satellites from companies like Planet Labs, Umbra, and HawkEye 360; GPS; miniature CubeSats for education and research; and military/defense satellites.

Loading next visibility...
Identifier
40017, 2014-033H
Orbit
SSO
Country
Flag of CISCIS
Related business
Manufacturer
Sputniks
Mission
Non-operational Commercial Imaging
Bus & Motor
TABLETSAT-2U-EO, Unknown motor
Mass
25 kg wet, 25 kg dry
Launch date (UTC)
2014-06-19 (12 years ago)
Launch vehicle
DNEPR
Launch site
Orenburg, Russia (OREN)
Object type
Payload
Rocket body
Debris
Shape & HBR
Hex Cyl + 6 Pan, 0.6 m
Radar Cross Section
0.456 m², Medium (>0.1 m² and < 1m²)

Expand to show TLE details & history
Last TLE update: 8 hours ago

TLE from 8 hours ago
0 TABLETSAT AURORA
1 40017U 14033H   26124.17303259  .00005045  00000-0  25845-3 0  9999
2 40017  98.0256 195.7055 0011527  13.4083 346.7453 15.17041645648533
Epoch: 2026-05-04T04:09Z
TLE epoch observation values (Epoch: 2026-05-04T04:09:10.015Z)
Latitude
-0.00002°
Longitude
-88.65226°
Altitude
510.12 km
Speed
7.613 km/s
True Right ascension
13h 02m 49s
True Declination
0° 00' 00"
Sunlit
Object was in full shadow at epoch
Visualization orbit readout
Latitude
Unknown
Longitude
Unknown
Altitude
Unknown
Speed
Unknown
Apparent Right ascension
Unknown
Apparent Declination
Unknown
Sunlit
N/A
Visualization observer readout
Local Sidereal Time
20:14:50
Azimuth
Unknown
Elevation
Unknown
Doppler factor
Unknown
Orbital elements
Apogee altitude
519.727 km
Perigee altitude
503.843 km
Semi-major axis
6,889.922 km
Eccentricity
0.00115
Inclination
98.0256°
RAAN
195.7055°
Arg. of periapsis
13.4083°
True anomaly
346.71497°
Mean anomaly
346.7453°
Eccentric anomaly
346.73014°
Mean motion
3.79509 °/min
Orbital period
94.86 mins
BSTAR
0.00025845
Loading maneuver chart data...
Computing Atmospheric mass density...
Loading historical data...
Loading historical data...
Loading historical data...
Loading historical data...
Loading historical data...
Loading historical data...
Loading historical data...

Documentation

Showing up to 5 results
|